STARLINK-2645 (48444 NORAD) Tracking and Keplerian Element Data

This shows tracking and keplerian element data for the satellite.

Feedback or suggestion? Click here.




ElementValue
Catalog48444
NameSTARLINK-2645
Epoch Orbit365
Epoch Day214.91667824
Epoch Year2021
RAAN162.8067
Inclination53.0466
Eccentricity0.0001456
Argument of Perigee71.0319
Mean Anonmoly191.4853
Mean Motion15.20823295
Decay Rate-0.00834342
L11 48444U 21040S 21214.91667824 -.00834342 00000-0 -40511-1 0 9992
L22 48444 53.0466 162.8067 0001456 71.0319 191.4853 15.20823295 3659

Live tracking and technical data element details for STARLINK-2645 (NORAD 48444). STARLINK-2645 can be tracked NOW for your location showing map with azimuth and elevation plus other details from your city location.

Track the satellite on the map from your city or location and see movement details for azimuth, elevation, latitude, longitude, range, height, and movement on the map or in text.







IsCatalogInMostPopularTable: catalog: 48444, numindb: 28
Update: records affected: 1



GetName: 48444 STARLINK-2645

Hit Count: updated at: Tue, 03 Aug 2021 20:16:07 GMT